INTELSAT 36

Satellite information

Favourite Embed

Satellite Type and Status

PAYLOADIN ORBIT

Key statistics

Satellite INTELSAT 36 at a glance.

Uptime

3399

Days in orbit

Revolutions

≈ 1.0

Per day

Orbit

GEO

Geostationary Orbit

Inclination

0.0

Latest

Satellite identification and parameters

Extended collection of information and parameters for INTELSAT 36.

Object identification

Identified? True

Debris? False

Object name: INTELSAT 36

International designator: 2016-053A

Object number (NORAD): 41747

Object ID (CCSDS): 41747

Country: INTERNATIONAL TELECOMMUNICATIONS SATELLITE ORGANIZATION (INTELSAT) (ITSO)

Current information (Y/N): Y

RCS size: LARGE

Orbital parameters

Period: 1436.082 minutes

Inclination: 0.0113 deg

SMA: 42164.446 km

Apoapsis: 35792.195 km

Periapsis: 35780.428 km

RAAN: 0.4303 deg

Eccentricy: 0.00013954

Argument of periapsis: 329.8168 deg

Mean anomaly: 1.6387 deg

Mean motion: 1.00272804 rev/day

Mean motion (dot): -0.0000001 rev/day2

B* drag term: 0.0 1/REarth

Two-line elements (TLE)

Creation date: Dec. 14, 2025, 3:07 a.m.

Reference frame: TEME

Reference center: EARTH

Epoch: Dec. 13, 2025, 12:03 p.m. UTC

TLE line 0: 0 INTELSAT 36

TLE line 1: 1 41747U 16053A 25347.50267618 -.00000010 00000-0 00000-0 0 9996

TLE line 2: 2 41747 0.0113 0.4303 0001395 329.8168 1.6387 1.00272804 34089

Live tracking on map

Real-time ground track for satellite INTELSAT 36.

In-orbit conjunctions

There are no conjunctions computed for INTELSAT 36, at the moment. Check back to stay up to date, as we update our databases every day.

Go to all conjunctions

Associated space launch

Intelsat 33e and Intelsat 36 are communication satellites. Intelsat 33e will cover Europe, Africa, Asia and the Middle East. Intelsat 36 will cover Africa and South Asia. Both contain C-band transponders, Ku-band transponders and have an expected life span or about 15 years.

INTELSAT 36 was lifted into orbit during the mission ‘Ariane 5 ECA | Intelsat 33e & Intelsat 36’, on board a Ariane 5 ECA space rocket.

The launch took place on Aug. 24, 2016, 10:16 p.m. from Ariane Launch Area 3.

For more information about the launch, click the button.

Launch to space Ariane 5 ECA | Intelsat 33e & Intelsat 36
Ariane 5 ECA | Intelsat 33e & Intelsat 36

Agency: N/A

Status: Launch Successful

Launch date: Aug. 24, 2016, 10:16 p.m. UTC

Rocket: Ariane 5 ECA

Launch pad: Ariane Launch Area 3

Location: Guiana Space Centre, French Guiana

...

Latest news about this satellite

News about space launch
Intelsat 33e demise exposes vulnerabilities in the space domain

Intelsat 33e’s break-up in geostationary orbit highlights an emerging threat for the contested space domain, an executive at U.S.-based space-tracking company ExoAnalytic Solutions said Dec. 10 during the Spacepower Conference here. The post Intelsat 33e...

News about space launch
Intelsat 33e Breakup Sends Shockwaves

Space-tracking company ExoAnalytic Solutions has identified about 500 pieces of debris from Intelsat 33e’s recent breakup in geostationary orbit (GEO).

News about space launch
ExoAnalytic observes 500 pieces of debris from Intelsat 33e breakup

U.S.-based space-tracking company ExoAnalytic Solutions has identified about 500 pieces of debris from Intelsat 33e’s recent breakup in geostationary orbit.


Newsletter sign-up

Weekly statistics, charts and insights to help you stay on top of the space industry.